| time (UTC) | temp F | wind direction | speed MPH | gust MPH | rain 1hr in | rain 24hr in | rain mn in | humidity % | barometer mb |
| 20260507064044 | 58 | 157 | 1.0 | 2.0 | 0.00 | 0.28 | 0.00 | 70 | 1018.6 |
| 20260507063027 | 55 | 315 | 0.0 | 0.0 | 0.00 | 0.30 | 0.00 | 70 | 1017.6 |
| 20260507062110 | 55 | 315 | 0.0 | 0.0 | 0.00 | 0.31 | 0.00 | 70 | 1016.6 |
| 20260507061055 | 54 | 315 | 0.0 | 0.0 | 0.00 | 0.35 | 0.00 | 70 | 1017.0 |
| 20260507060035 | 54 | 332 | 1.0 | 3.0 | 0.00 | 0.38 | 0.00 | 77 | 1018.0 |
| 20260507055020 | 54 | 333 | 3.0 | 3.0 | 0.00 | 0.50 | 0.00 | 84 | 1018.6 |
| 20260507054104 | 53 | 333 | 3.0 | 3.0 | 0.00 | 0.66 | 0.00 | 85 | 1018.6 |
| 20260507053046 | 53 | 333 | 3.0 | 3.0 | 0.00 | 0.74 | 0.00 | 87 | 1016.6 |
| 20260507052032 | 53 | 333 | 3.0 | 3.0 | 0.00 | 0.76 | 0.00 | 84 | 1018.6 |
| 20260507051114 | 52 | 333 | 3.0 | 3.0 | 0.00 | 0.78 | 0.00 | 76 | 1018.6 |
| 20260507050117 | 53 | 333 | 3.0 | 3.0 | 0.00 | 0.79 | 0.00 | 80 | 1017.6 |
| 20260507045040 | 52 | 333 | 3.0 | 3.0 | 0.00 | 0.81 | 0.00 | 81 | 1017.6 |
| 20260507044021 | 52 | 333 | 3.0 | 3.0 | 0.00 | 0.85 | 0.00 | 85 | 1017.6 |
| 20260507043109 | 52 | 333 | 3.0 | 3.0 | 0.00 | 0.86 | 0.00 | 80 | 1015.6 |
| 20260507042050 | 51 | 333 | 3.0 | 3.0 | 0.00 | 0.86 | 0.00 | 82 | 1015.6 |
| 20260507041033 | 51 | 333 | 3.0 | 3.0 | 0.00 | 0.87 | 0.00 | 87 | 1017.6 |
| 20260507040119 | 52 | 333 | 3.0 | 3.0 | 0.00 | 0.87 | 0.00 | 83 | 1017.6 |
| 20260507035058 | 52 | 333 | 3.0 | 3.0 | 0.00 | 0.89 | 0.00 | 89 | 1016.6 |
| 20260507034044 | 53 | 333 | 3.0 | 3.0 | 0.00 | 0.89 | 0.00 | 87 | 1016.6 |
| 20260507033026 | 53 | 333 | 3.0 | 3.0 | 0.00 | 0.89 | 0.00 | 81 | 1015.6 |
| 20260507032110 | 52 | 333 | 3.0 | 3.0 | 0.00 | 0.89 | 0.00 | 81 | 1015.6 |
| 20260507031055 | 52 | 333 | 3.0 | 3.0 | 0.00 | 0.89 | 0.00 | 81 | 1017.6 |
| 20260507030052 | 52 | 333 | 3.0 | 3.0 | 0.00 | 0.89 | 0.00 | 81 | 1017.6 |
| 20260507025114 | 52 | 333 | 3.0 | 3.0 | 0.00 | 0.89 | 0.00 | 80 | 1016.6 |
| 20260507024057 | 52 | 333 | 3.0 | 3.0 | 0.00 | 0.89 | 0.00 | 81 | 1016.6 |
| 20260507023034 | 53 | 333 | 3.0 | 3.0 | 0.00 | 0.89 | 0.00 | 80 | 1017.6 |
| 20260507022132 | 53 | 333 | 3.0 | 3.0 | 0.00 | 0.89 | 0.00 | 81 | 1017.6 |
| 20260507021055 | 53 | 333 | 3.0 | 3.0 | 0.00 | 0.89 | 0.00 | 80 | 1016.8 |
| 20260507020055 | 53 | 333 | 3.0 | 3.0 | 0.00 | 0.89 | 0.00 | 80 | 1016.6 |
| 20260507015041 | 53 | 333 | 3.0 | 3.0 | 0.00 | 0.89 | 0.00 | 80 | 1016.6 |
| 20260507014104 | 52 | 330 | 3.0 | 3.0 | 0.00 | 0.89 | 0.00 | 80 | 1016.6 |
| 20260507013046 | 51 | 329 | 3.0 | 3.0 | 0.00 | 0.89 | 0.00 | 80 | 1016.6 |
| 20260507012031 | 51 | 329 | 3.0 | 3.0 | 0.00 | 0.89 | 0.00 | 80 | 1016.6 |
| 20260507011135 | 51 | 337 | 4.0 | 4.0 | 0.00 | 0.89 | 0.00 | 80 | 1016.6 |
| 20260507010057 | 51 | 340 | 4.0 | 4.0 | 0.00 | 0.89 | 0.00 | 80 | 1016.6 |
| 20260507005039 | 52 | 340 | 4.0 | 4.0 | 0.00 | 0.89 | 0.00 | 80 | 1016.6 |
| 20260507004042 | 53 | 340 | 4.0 | 4.0 | 0.00 | 0.89 | 0.00 | 78 | 1016.6 |
| 20260507003109 | 54 | 340 | 4.0 | 4.0 | 0.00 | 0.89 | 0.00 | 76 | 1017.0 |
| 20260507002051 | 54 | 340 | 4.0 | 4.0 | 0.00 | 0.89 | 0.00 | 78 | 1017.6 |
| 20260507001053 | 53 | 340 | 4.0 | 4.0 | 0.00 | 0.89 | 0.00 | 80 | 1017.3 |
| 20260507000119 | 54 | 340 | 4.0 | 4.0 | 0.00 | 0.89 | 0.00 | 80 | 1016.6 |
| 20260506235059 | 54 | 340 | 4.0 | 4.0 | 0.00 | 0.89 | 0.00 | 80 | 1016.6 |
| 20260506234104 | 55 | 340 | 4.0 | 4.0 | 0.00 | 0.89 | 0.00 | 80 | 1016.6 |
| 20260506233027 | 55 | 340 | 4.0 | 4.0 | 0.00 | 0.89 | 0.00 | 80 | 1015.6 |
| 20260506232110 | 55 | 340 | 4.0 | 4.0 | 0.00 | 0.89 | 0.00 | 80 | 1017.6 |
| 20260506231116 | 56 | 340 | 4.0 | 4.0 | 0.00 | 0.89 | 0.00 | 80 | 1017.6 |
| 20260506230035 | 56 | 340 | 4.0 | 4.0 | 0.00 | 0.89 | 0.00 | 80 | 1016.6 |
| 20260506225020 | 56 | 340 | 4.0 | 4.0 | 0.00 | 0.89 | 0.00 | 79 | 1016.6 |
| 20260506224103 | 56 | 340 | 4.0 | 4.0 | 0.00 | 0.89 | 0.00 | 80 | 1016.6 |
| 20260506223046 | 56 | 340 | 4.0 | 4.0 | 0.00 | 0.89 | 0.00 | 79 | 1015.6 |
| 20260506222031 | 56 | 340 | 4.0 | 4.0 | 0.00 | 0.89 | 0.00 | 79 | 1015.6 |
| 20260506221114 | 56 | 340 | 4.0 | 4.0 | 0.00 | 0.89 | 0.00 | 79 | 1016.6 |
| 20260506220058 | 56 | 340 | 4.0 | 4.0 | 0.00 | 0.89 | 0.00 | 78 | 1016.6 |
| 20260506215039 | 55 | 340 | 4.0 | 4.0 | 0.00 | 0.89 | 0.89 | 78 | 1016.6 |
| 20260506214120 | 55 | 340 | 4.0 | 4.0 | 0.00 | 0.89 | 0.89 | 78 | 1016.6 |
| 20260506213056 | 55 | 338 | 5.0 | 5.0 | 0.00 | 0.89 | 0.89 | 77 | 1015.6 |
| 20260506212033 | 55 | 89 | 5.0 | 5.0 | 0.00 | 0.89 | 0.89 | 77 | 1015.6 |
| 20260506211109 | 56 | 89 | 5.0 | 5.0 | 0.00 | 0.89 | 0.89 | 77 | 1016.6 |
| 20260506210046 | 56 | 89 | 5.0 | 5.0 | 0.00 | 0.89 | 0.89 | 75 | 1016.6 |
| 20260506205042 | 56 | 89 | 5.0 | 5.0 | 0.00 | 0.89 | 0.89 | 76 | 1016.6 |
| 20260506204058 | 56 | 89 | 5.0 | 5.0 | 0.00 | 0.89 | 0.89 | 77 | 1015.8 |
| 20260506203034 | 56 | 89 | 5.0 | 5.0 | 0.00 | 0.89 | 0.89 | 76 | 1015.6 |
| 20260506202120 | 57 | 89 | 5.0 | 5.0 | 0.00 | 0.89 | 0.89 | 77 | 1015.6 |
| 20260506201059 | 57 | 89 | 5.0 | 5.0 | 0.00 | 0.89 | 0.89 | 77 | 1016.3 |
| 20260506200044 | 57 | 89 | 5.0 | 5.0 | 0.00 | 0.89 | 0.89 | 77 | 1016.0 |
| 20260506195029 | 58 | 89 | 5.0 | 5.0 | 0.00 | 0.89 | 0.89 | 77 | 1015.6 |
| 20260506194111 | 58 | 89 | 5.0 | 5.0 | 0.00 | 0.89 | 0.89 | 76 | 1015.0 |
| 20260506193056 | 58 | 89 | 5.0 | 5.0 | 0.00 | 0.89 | 0.89 | 76 | 1014.6 |
| 20260506192035 | 58 | 89 | 5.0 | 5.0 | 0.00 | 0.89 | 0.89 | 76 | 1014.6 |
| 20260506191021 | 58 | 89 | 5.0 | 5.0 | 0.00 | 0.89 | 0.89 | 76 | 1015.1 |
| 20260506190104 | 59 | 89 | 5.0 | 5.0 | 0.00 | 0.89 | 0.89 | 76 | 1015.6 |
| 20260506185046 | 59 | 89 | 5.0 | 5.0 | 0.00 | 0.89 | 0.89 | 77 | 1015.6 |
| 20260506184032 | 59 | 89 | 5.0 | 5.0 | 0.00 | 0.89 | 0.89 | 77 | 1015.3 |
| 20260506183115 | 60 | 89 | 5.0 | 5.0 | 0.00 | 0.89 | 0.89 | 76 | 1014.8 |
| 20260506182059 | 60 | 89 | 5.0 | 5.0 | 0.00 | 0.89 | 0.89 | 75 | 1015.6 |
| 20260506181034 | 60 | 89 | 5.0 | 5.0 | 0.00 | 0.89 | 0.89 | 75 | 1015.6 |
| 20260506180120 | 61 | 89 | 5.0 | 5.0 | 0.00 | 0.89 | 0.89 | 74 | 1014.6 |
| 20260506175059 | 61 | 89 | 5.0 | 5.0 | 0.00 | 0.89 | 0.89 | 75 | 1014.6 |
| 20260506174044 | 61 | 89 | 5.0 | 5.0 | 0.00 | 0.89 | 0.89 | 74 | 1015.6 |
| 20260506173026 | 61 | 89 | 5.0 | 5.0 | 0.00 | 0.89 | 0.89 | 72 | 1014.6 |
| 20260506172131 | 61 | 89 | 5.0 | 5.0 | 0.00 | 0.89 | 0.89 | 72 | 1014.6 |
| 20260506171115 | 62 | 89 | 5.0 | 5.0 | 0.00 | 0.89 | 0.89 | 73 | 1014.6 |
| 20260506170115 | 62 | 89 | 5.0 | 5.0 | 0.00 | 0.89 | 0.89 | 74 | 1014.6 |
| 20260506165020 | 62 | 89 | 5.0 | 5.0 | 0.00 | 0.89 | 0.89 | 74 | 1014.6 |
| 20260506164104 | 63 | 89 | 5.0 | 5.0 | 0.00 | 0.89 | 0.89 | 74 | 1014.6 |
| 20260506163046 | 63 | 89 | 5.0 | 5.0 | 0.00 | 0.89 | 0.89 | 74 | 1013.6 |
| 20260506162031 | 63 | 89 | 5.0 | 5.0 | 0.00 | 0.90 | 0.89 | 74 | 1013.6 |
| 20260506161108 | 62 | 89 | 5.0 | 5.0 | 0.00 | 0.92 | 0.89 | 74 | 1014.6 |
| 20260506160044 | 62 | 89 | 5.0 | 5.0 | 0.00 | 0.92 | 0.89 | 75 | 1014.6 |
| 20260506155020 | 62 | 89 | 5.0 | 5.0 | 0.00 | 0.92 | 0.89 | 75 | 1014.6 |
| 20260506154104 | 62 | 49 | 5.0 | 5.0 | 0.00 | 0.92 | 0.89 | 78 | 1014.6 |
| 20260506153107 | 62 | 56 | 4.0 | 4.0 | 0.00 | 0.92 | 0.89 | 77 | 1013.6 |
| 20260506152032 | 62 | 49 | 5.0 | 5.0 | 0.00 | 0.92 | 0.89 | 80 | 1013.6 |
| 20260506151110 | 61 | 56 | 4.0 | 4.0 | 0.00 | 0.92 | 0.89 | 79 | 1014.6 |
| 20260506150051 | 62 | 49 | 5.0 | 5.0 | 0.00 | 0.92 | 0.89 | 79 | 1014.6 |
| 20260506145034 | 61 | 56 | 4.0 | 5.0 | 0.00 | 0.92 | 0.89 | 79 | 1014.6 |
| 20260506144120 | 60 | 48 | 5.0 | 5.0 | 0.00 | 0.92 | 0.89 | 79 | 1015.4 |
| 20260506143100 | 59 | 46 | 5.0 | 5.0 | 0.00 | 0.92 | 0.89 | 80 | 1015.6 |
| 20260506142044 | 59 | 46 | 5.0 | 5.0 | 0.00 | 0.94 | 0.89 | 79 | 1015.6 |
| 20260506141027 | 59 | 65 | 4.0 | 5.0 | 0.00 | 0.96 | 0.89 | 77 | 1014.9 |
| 20260506140130 | 60 | 76 | 4.0 | 4.0 | 0.01 | 0.98 | 0.89 | 77 | 1014.6 |
| 20260506135056 | 60 | 76 | 4.0 | 4.0 | 0.02 | 0.98 | 0.89 | 78 | 1014.6 |
| 20260506134055 | 60 | 76 | 4.0 | 4.0 | 0.02 | 0.99 | 0.89 | 79 | 1015.6 |
| 20260506133040 | 59 | 76 | 4.0 | 4.0 | 0.04 | 0.99 | 0.89 | 79 | 1016.6 |
| 20260506132104 | 59 | 76 | 4.0 | 4.0 | 0.05 | 1.00 | 0.89 | 79 | 1016.2 |
| 20260506131046 | 59 | 76 | 4.0 | 6.0 | 0.08 | 1.00 | 0.89 | 80 | 1015.6 |
| 20260506130031 | 59 | 76 | 4.0 | 4.0 | 0.17 | 0.99 | 0.87 | 82 | 1015.6 |
| 20260506125115 | 58 | 76 | 4.0 | 4.0 | 0.21 | 0.98 | 0.86 | 84 | 1015.6 |
| 20260506124057 | 59 | 76 | 4.0 | 4.0 | 0.22 | 0.98 | 0.86 | 79 | 1015.6 |
| 20260506123039 | 59 | 76 | 4.0 | 4.0 | 0.22 | 0.97 | 0.85 | 79 | 1015.6 |
| 20260506122022 | 59 | 76 | 4.0 | 4.0 | 0.21 | 0.96 | 0.84 | 79 | 1014.6 |
| 20260506121109 | 58 | 76 | 4.0 | 4.0 | 0.18 | 0.92 | 0.80 | 81 | 1014.6 |
| 20260506120047 | 58 | 76 | 4.0 | 4.0 | 0.08 | 0.83 | 0.71 | 87 | 1016.6 |
| 20260506115026 | 59 | 76 | 4.0 | 4.0 | 0.02 | 0.77 | 0.65 | 87 | 1015.6 |
| 20260506114110 | 59 | 76 | 4.0 | 4.0 | 0.02 | 0.76 | 0.64 | 86 | 1015.6 |
| 20260506113055 | 59 | 76 | 4.0 | 4.0 | 0.01 | 0.74 | 0.63 | 83 | 1016.6 |
| 20260506112034 | 59 | 76 | 4.0 | 4.0 | 0.01 | 0.74 | 0.63 | 77 | 1016.6 |
| 20260506111020 | 58 | 76 | 4.0 | 4.0 | 0.01 | 0.74 | 0.63 | 77 | 1015.6 |
| 20260506110103 | 58 | 56 | 3.0 | 3.0 | 0.01 | 0.74 | 0.63 | 77 | 1015.6 |
| 20260506105046 | 58 | 56 | 3.0 | 3.0 | 0.01 | 0.74 | 0.63 | 77 | 1015.6 |
| 20260506104031 | 59 | 56 | 3.0 | 3.0 | 0.00 | 0.73 | 0.61 | 76 | 1016.6 |
| 20260506103114 | 59 | 56 | 3.0 | 3.0 | 0.00 | 0.74 | 0.61 | 75 | 1017.6 |
| 20260506102057 | 59 | 56 | 3.0 | 3.0 | 0.00 | 0.76 | 0.61 | 77 | 1017.6 |
| 20260506101059 | 59 | 56 | 3.0 | 3.0 | 0.00 | 0.77 | 0.61 | 83 | 1016.6 |
| 20260506100120 | 59 | 56 | 3.0 | 3.0 | 0.00 | 0.78 | 0.61 | 83 | 1016.6 |
| 20260506095119 | 59 | 56 | 3.0 | 3.0 | 0.00 | 0.80 | 0.61 | 77 | 1016.6 |
| 20260506094045 | 59 | 56 | 3.0 | 3.0 | 0.00 | 0.81 | 0.61 | 77 | 1016.6 |
| 20260506093027 | 59 | 56 | 3.0 | 3.0 | 0.00 | 0.84 | 0.61 | 78 | 1016.6 |
| 20260506092108 | 58 | 56 | 3.0 | 3.0 | 0.00 | 0.84 | 0.61 | 78 | 1017.5 |
| 20260506091047 | 59 | 56 | 3.0 | 3.0 | 0.00 | 0.85 | 0.61 | 80 | 1016.8 |
| 20260506090031 | 58 | 56 | 3.0 | 3.0 | 0.00 | 0.86 | 0.61 | 79 | 1016.6 |
| 20260506085135 | 59 | 56 | 3.0 | 3.0 | 0.00 | 0.86 | 0.61 | 85 | 1016.6 |
| 20260506084138 | 58 | 31 | 2.0 | 3.0 | 0.00 | 0.86 | 0.61 | 82 | 1016.6 |
| 20260506083119 | 58 | 12 | 2.0 | 2.0 | 0.00 | 0.86 | 0.61 | 80 | 1016.6 |
| 20260506082022 | 58 | 12 | 2.0 | 2.0 | 0.00 | 0.86 | 0.61 | 81 | 1016.6 |
| 20260506081109 | 57 | 12 | 2.0 | 2.0 | 0.00 | 0.86 | 0.61 | 82 | 1016.6 |
| 20260506073120 | 56 | 12 | 2.0 | 2.0 | 0.02 | 0.86 | 0.61 | 82 | 1016.6 |
| 20260506071619 | 56 | 12 | 2.0 | 2.0 | 0.06 | 0.86 | 0.61 | 82 | 1015.6 |
| 20260506070545 | 55 | 12 | 2.0 | 2.0 | 0.11 | 0.86 | 0.61 | 83 | 1017.6 |